STARLINK-11269, 60995

Orbit data source: Space-Track

STARLINK-11269, 60995 is a payload satellite owned by SpaceX/Seattle (US) in LEO that was launched on Thu, 05 Sep 2024 UTC via an FALCON 9 launch vehicle from the Air Force Eastern Test Range (AFETR). Payload-class satellites include a variety of spacecraft equipped with specific instruments for various scientific and technological missions. These include communications satellites like Starlink; space stations such as the ISS; scientific satellites like the Hubble; Earth observation satellites from companies like Planet Labs, Umbra, and HawkEye 360; GPS; miniature CubeSats for education and research; and military/defense satellites.

Loading next visibility...
Identifier
60995, 2024-158F
Orbit
LEO
Country
Flag of USUS
Related business
Manufacturer
SpaceX/Seattle
Mission
Operational Commercial Communications
Bus & Motor
STARLINK V2M, Unknown motor
Mass
730 kg wet, ~700 kg dry
Launch date (UTC)
2024-09-05 (1 year ago)
Launch vehicle
FALCON 9
Launch site
Air Force Eastern Test Range (AFETR)
Object type
Payload
Rocket body
Debris
Shape & HBR
Box + 2 Pan, 14.5 m
Radar Cross Section
36.964 m², Large (>1 m²)

Expand to show TLE details & history
Last TLE update: 15 hours ago

TLE from 15 hours ago
0 STARLINK-11269
1 60995U 24158F   25242.12335120 -.00003836  00000-0 -26832-4 0  9998
2 60995  53.1597 145.8626 0000953  67.3074 292.8045 15.69697132 57491
Epoch: 2025-08-30T02:57Z
TLE epoch observation values (Epoch: 2025-08-30T02:57:37.543Z)
Latitude
Longitude
122.89401°
Altitude
360.43 km
Speed
7.694 km/s
True Right ascension
09h 43m 27s
True Declination
0° 00' 00"
Sunlit
Object was in daylight at epoch
Visualization orbit readout
Latitude
Unknown
Longitude
Unknown
Altitude
Unknown
Speed
Unknown
Apparent Right ascension
Unknown
Apparent Declination
Unknown
Sunlit
N/A
Visualization observer readout
Local Sidereal Time
09:19:55
Azimuth
Unknown
Elevation
Unknown
Doppler factor
Unknown
Orbital elements
Apogee altitude
360.666 km
Perigee altitude
359.382 km
Semi-major axis
6,738.161 km
Eccentricity
0.0001
Inclination
53.1597°
RAAN
145.8626°
Arg. of periapsis
67.3074°
True anomaly
292.79443°
Mean anomaly
292.8045°
Eccentric anomaly
292.79947°
Mean motion
3.92402 °/min
Orbital period
91.74 mins
BSTAR
-0.000026832
Loading maneuver chart data...
Computing Atmospheric mass density...
Loading historical data...
Loading historical data...
Loading historical data...
Loading historical data...
Loading historical data...
Loading historical data...
Loading historical data...

Documentation

Showing up to 5 results
|